Theta_e
311 312 311 309 309 308 306 304 301 295 294 293 292 294 295 296 295 297 298 300 304 304 304 305 303 301 300 299 299 298 299 299 299 300 300 301 301 301
312 312 312 311 310 309 307 306 304 301 294 294 292 293 294 295 295 296 297 296 298 301 301 301 301 300 300 298 297 296 296 296 297 297 298 299 299 300
313 312 311 312 310 308 307 306 302 299 293 290 292 293 293 293 294 295 295 295 292 297 299 299 299 299 298 297 296 295 294 294 295 295 296 297 297 298
311 311 311 311 309 306 307 304 300 297 294 290 290 290 291 292 293 293 293 294 293 295 298 298 297 297 297 297 296 295 293 293 294 294 294 295 295 296
311 310 310 311 308 307 305 301 299 298 295 292 288 290 290 291 290 291 290 290 292 293 297 297 297 296 296 295 295 294 293 293 294 293 293 293 293 294
310 310 310 310 309 307 303 300 297 295 294 291 289 288 288 288 289 287 286 287 286 290 292 292 294 295 296 296 295 294 294 293 294 293 293 293 293 292
302 305 307 302 299 302 302 299 297 295 293 291 287 287 284 285 286 286 286 285 286 286 286 288 290 290 290 292 292 293 294 294 293 294 293 293 293 292
296 296 296 293 295 295 295 295 296 296 293 292 290 289 287 286 285 285 285 285 286 285 286 286 286 287 288 287 291 293 294 294 293 293 294 294 293 293
295 295 294 293 294 294 292 291 289 292 294 295 292 290 288 286 285 285 285 285 285 285 285 285 284 284 282 286 290 292 293 294 294 293 294 294 294 294
293 294 294 293 292 292 290 287 287 288 289 289 288 287 287 287 288 288 287 285 284 284 285 284 283 284 281 281 291 291 292 293 293 293 293 293 294 295
289 290 292 292 290 291 288 285 284 283 288 289 289 290 290 290 289 286 284 280 279 283 283 283 283 278 277 279 283 290 291 290 290 292 292 293 293 293
286 286 287 289 290 288 285 282 280 279 279 279 281 283 283 283 284 284 284 281 277 278 283 283 280 280 279 279 280 282 285 288 289 289 289 289 290 288
284 285 286 289 289 288 286 282 281 281 281 278 277 277 277 277 277 278 281 281 283 282 282 283 282 282 282 281 281 280 283 283 283 284 286 287 288 287
283 283 285 288 288 287 285 286 284 279 277 276 276 274 272 272 271 272 273 275 278 279 276 280 282 281 280 279 278 280 281 280 282 281 282 285 286 286
285 286 287 287 286 285 284 283 276 276 275 276 274 271 269 268 269 269 270 269 270 270 272 271 279 278 279 278 278 276 276 274 280 279 279 280 280 282
284 280 283 283 282 279 279 279 278 277 276 274 270 269 269 270 273 268 269 268 272 272 273 271 272 279 277 272 270 269 273 273 277 277 277 276 278 279
278 273 272 274 279 280 281 280 278 276 277 273 275 272 272 274 271 268 268 270 272 269 272 274 274 267 271 278 268 264 267 268 271 274 274 276 271 274
274 279 279 280 280 279 278 278 277 274 268 271 272 271 271 270 271 271 271 270 268 268 268 268 269 268 268 269 276 271 265 264 269 270 267 274 273 275
281 280 280 279 277 277 277 276 274 268 265 269 269 267 268 268 269 267 266 267 264 259 260 257 261 260 259 260 266 276 263 267 267 269 271 272 265 272
280 280 279 277 275 275 273 269 267 267 265 265 266 264 264 262 263 262 259 256 255 253 260 259 257 255 261 265 267 262 275 268 263 264 269 265 269 276
280 279 278 273 270 269 266 265 265 262 260 262 258 261 259 263 258 255 257 257 254 251 256 257 260 262 257 257 259 259 262 272 273 265 265 260 264 262
274 274 273 269 267 266 265 264 263 262 260 260 258 259 257 258 257 255 254 256 251 251 253 254 259 260 259 256 253 253 258 260 268 272 272 272 260 258
270 269 269 265 265 264 263 262 261 257 257 258 258 255 252 255 252 254 252 250 249 252 250 254 256 256 253 253 252 253 253 256 259 262 262 271 272 272
Wind_Speed
9 8 7 6 6 5 5 5 5 3 4 2 2 2 2 1 1 3 4 5 8 8 9 8 8 4 2 1 4 4 4 7 8 9 10 11 11 12
7 8 7 6 6 5 6 4 2 3 3 1 1 2 2 2 3 3 4 5 7 5 6 6 7 3 4 3 4 5 5 6 7 8 9 10 11 12
8 8 7 7 5 5 5 3 3 3 4 2 2 1 2 3 2 2 3 3 3 3 4 6 3 3 6 6 7 6 6 7 8 8 10 11 11 12
9 8 7 5 6 6 4 4 4 3 4 4 2 1 2 2 2 2 1 1 1 1 1 2 2 3 5 8 9 8 8 8 9 10 11 11 12 12
7 6 5 6 6 6 5 5 4 3 3 5 3 2 1 2 1 0 1 1 2 5 4 4 5 4 5 6 8 10 10 10 9 10 10 11 11 12
6 6 6 6 6 7 6 6 5 5 6 5 3 3 2 1 1 2 2 1 2 2 4 5 7 7 9 10 11 10 11 12 10 10 10 11 11 11
6 5 3 4 9 8 7 7 7 5 4 4 3 2 1 1 2 1 1 2 2 1 2 2 3 3 4 8 9 11 13 14 12 11 10 11 10 11
7 7 7 9 13 15 14 13 7 5 3 3 2 2 2 2 2 2 2 1 2 1 1 2 2 3 4 4 11 14 14 13 12 12 12 12 11 10
7 8 8 6 11 13 17 17 15 16 10 3 4 3 2 3 4 2 2 1 1 2 2 3 2 3 3 5 11 11 11 11 10 12 14 13 13 10
8 9 10 9 8 11 11 11 10 11 9 7 8 4 5 4 4 2 2 2 1 1 1 1 2 3 3 3 12 11 10 11 11 12 12 13 13 13
9 9 9 10 11 13 11 10 9 8 13 20 19 19 16 14 6 2 2 2 1 2 3 2 2 3 2 3 4 17 17 18 17 17 16 15 14 15
9 10 14 10 13 11 9 8 10 2 4 5 5 10 11 11 15 7 2 3 1 2 3 2 3 3 4 1 2 4 7 17 17 18 19 18 18 6
7 7 6 16 15 15 12 6 6 6 10 8 6 5 6 6 5 5 4 3 2 2 4 2 2 2 1 3 3 4 7 5 6 9 16 18 19 15
8 5 7 16 18 17 11 16 16 10 6 6 6 4 3 3 3 4 5 5 5 3 3 3 1 2 2 2 3 5 8 4 8 8 8 12 15 17
7 13 18 19 19 16 17 15 7 5 5 7 5 2 1 1 2 3 3 4 4 4 4 4 4 4 4 4 3 3 6 4 8 7 8 8 8 8
12 6 12 15 14 10 8 9 6 5 5 4 2 1 1 3 4 2 3 2 4 5 6 5 3 3 2 2 2 3 4 5 8 7 7 4 6 6
10 4 3 3 6 6 7 7 7 6 6 3 5 4 4 5 4 4 4 5 7 3 6 7 6 4 2 3 4 3 4 4 5 7 6 8 4 5
4 5 6 5 6 6 6 6 6 6 3 4 4 4 5 5 6 5 5 6 6 5 5 6 6 5 6 6 11 6 4 3 5 7 4 8 7 9
6 5 6 6 6 6 6 5 5 2 2 5 5 4 4 6 5 5 4 5 5 3 4 3 5 4 3 2 3 20 3 5 4 6 7 7 3 7
5 6 6 6 6 6 6 5 4 4 3 4 5 4 4 3 4 5 4 3 3 3 4 5 4 2 2 0 2 3 19 6 4 5 9 4 6 10
6 6 5 6 6 6 5 4 5 4 3 4 3 5 4 6 5 4 4 5 4 3 4 3 4 7 2 3 6 5 5 19 15 5 5 3 6 5
5 6 5 5 6 6 5 5 5 5 5 5 4 5 4 4 5 5 4 5 3 1 1 3 5 5 6 4 1 4 5 5 10 15 20 16 3 5
6 6 6 4 5 5 5 5 6 4 4 5 5 5 3 5 4 5 4 4 3 3 2 3 4 4 3 3 2 4 6 5 5 8 6 21 16 17
Wind_Direction
135 127 128 133 133 131 140 156 140 142 190 176 153 174 156 83 28 65 47 66 96 90 82 95 93 121 139 313 347 330 353 2 6 8 5 4 4 3
131 130 135 137 135 139 153 165 142 131 126 106 150 141 150 129 53 69 68 54 56 79 103 84 68 107 258 249 287 308 330 335 349 352 352 353 356 360
148 134 123 136 135 134 146 140 113 95 111 99 86 99 120 127 86 65 48 66 31 31 90 90 55 266 262 264 266 280 298 314 327 334 340 342 348 353
120 121 139 127 130 142 144 123 121 103 120 127 127 110 101 148 139 133 123 167 180 289 283 188 188 230 269 279 270 277 289 302 316 324 325 332 338 344
128 128 129 124 126 133 117 115 102 91 97 128 131 133 136 148 134 358 225 274 268 264 254 246 235 239 263 287 279 277 284 290 301 309 316 319 330 335
126 127 144 148 136 136 112 111 113 109 109 114 92 127 114 71 114 169 271 280 301 326 299 282 285 275 265 278 277 294 287 285 286 298 305 311 316 321
81 100 129 130 124 121 132 129 128 110 110 110 100 84 99 164 174 98 51 358 308 252 303 278 270 281 281 288 277 259 284 284 289 285 291 292 297 308
95 82 79 89 84 87 84 73 71 117 115 112 100 113 128 106 89 111 120 39 328 4 244 305 10 293 283 279 283 285 287 286 287 292 292 291 291 291
91 96 87 75 92 95 82 75 59 56 53 114 103 72 112 151 132 133 148 164 246 348 15 343 16 310 324 317 318 310 300 309 313 306 302 294 286 273
64 81 96 90 89 102 95 81 68 54 40 49 67 65 73 118 81 91 139 138 99 45 17 273 16 317 321 329 27 26 6 351 338 324 303 295 300 283
56 55 79 92 102 109 102 95 80 61 62 72 73 74 73 66 64 74 27 90 19 27 359 8 357 309 345 327 3 45 34 16 2 359 356 356 351 350
64 60 61 82 82 80 98 107 89 49 80 54 43 49 45 46 46 44 35 69 48 43 9 3 348 352 339 296 346 21 12 18 18 20 13 10 4 356
83 75 71 88 93 93 97 103 124 138 91 82 73 56 46 44 33 25 27 54 57 84 356 3 20 359 9 319 339 14 11 12 8 5 5 4 4 9
95 84 87 87 85 85 83 98 104 97 92 86 81 59 48 27 6 25 34 52 51 72 334 3 32 19 354 335 357 354 348 21 11 1 358 355 5 4
103 103 93 88 83 78 89 98 83 85 89 84 84 72 65 291 350 42 37 50 64 44 31 60 45 27 41 36 8 326 352 341 5 355 353 353 350 352
100 84 94 90 89 85 67 63 62 61 84 93 87 65 2 32 53 40 66 356 57 4 5 29 14 41 64 37 64 335 352 1 350 355 345 343 344 359
114 81 66 57 87 76 66 60 55 49 66 52 64 49 42 59 41 10 31 43 66 11 360 355 347 86 76 74 50 23 332 345 336 339 352 355 334 341
79 113 108 96 89 82 75 75 60 61 33 72 69 59 67 55 52 43 56 61 62 34 25 352 350 4 17 11 64 23 4 340 338 344 333 4 348 349
111 105 105 100 99 100 105 99 98 51 28 55 70 67 81 71 63 59 40 62 59 29 11 346 14 37 60 57 306 44 34 350 338 2 358 348 335 335
97 112 116 116 114 114 114 112 104 90 88 84 78 75 66 87 71 58 37 84 69 16 26 4 26 14 110 57 356 292 21 11 7 357 357 327 327 14
117 115 118 117 118 114 110 103 114 108 104 99 66 77 69 99 87 79 83 62 81 43 47 4 313 293 245 35 23 337 320 13 22 33 339 348 338 341
114 115 107 111 118 124 121 117 101 92 92 90 94 94 84 86 98 95 68 85 66 122 184 287 351 19 45 72 2 301 324 327 357 22 31 27 26 340
115 118 123 120 119 112 110 104 100 99 108 115 106 95 94 97 76 80 96 87 105 67 30 22 360 29 47 63 61 337 348 337 339 350 347 4 7 3